This is the latest recevied weather packets stored in our database for station/object KE6YLF. If no packets are shown the sender has not sent any weather packets the latest 10 day(s).
| Time | Temp. | Humidity | Pressure | Rain* | Wind** | Luminosity | Snow |
|---|---|---|---|---|---|---|---|
| 1778405536 | 26.67° C | 18% | 1073.5 hPa | 0 mm | - | - | - |
| 1778405232 | 27.22° C | 18% | 1073.6 hPa | 0 mm | - | - | - |
| 1778404928 | 27.22° C | 18% | 1073.4 hPa | 0 mm | - | - | - |
| 1778404624 | 27.78° C | 17% | 1073.3 hPa | 0 mm | - | - | - |
| 1778404320 | 27.78° C | 17% | 1073.5 hPa | 0 mm | - | - | - |
| 1778404017 | 27.78° C | 17% | 1073.4 hPa | 0 mm | - | - | - |
| 1778403714 | 28.33° C | 17% | 1073.3 hPa | 0 mm | - | - | - |
| 1778403409 | 27.78° C | 17% | 1073.3 hPa | 0 mm | - | - | - |
| 1778403104 | 27.78° C | 17% | 1073.1 hPa | 0 mm | - | - | - |
| 1778402801 | 27.78° C | 17% | 1073.3 hPa | 0 mm | - | - | - |
| 1778402497 | 27.22° C | 17% | 1073.1 hPa | 0 mm | - | - | - |
| 1778402194 | 27.78° C | 17% | 1073.2 hPa | 0 mm | - | - | - |
| 1778401891 | 27.78° C | 17% | 1073.3 hPa | 0 mm | - | - | - |
| 1778401587 | 27.78° C | 17% | 1073.2 hPa | 0 mm | - | - | - |
| 1778401284 | 27.78° C | 17% | 1073.2 hPa | 0 mm | - | - | - |
| 1778400983 | 27.78° C | 17% | 1073.4 hPa | 0 mm | - | - | - |
| 1778400679 | 28.89° C | 17% | 1073.3 hPa | 0 mm | - | - | - |
| 1778400373 | 30° C | 17% | 1073.4 hPa | 0 mm | - | - | - |
| 1778400071 | 30° C | 17% | 1073.4 hPa | 0 mm | - | - | - |
| 1778399768 | 30.56° C | 17% | 1073.5 hPa | 0 mm | - | - | - |
| 1778399464 | 30.56° C | 16% | 1073.6 hPa | 0 mm | - | - | - |
| 1778399161 | 30.56° C | 16% | 1073.5 hPa | 0 mm | - | - | - |
| 1778398857 | 30.56° C | 17% | 1073.5 hPa | 0 mm | - | - | - |
| 1778398553 | 30.56° C | 17% | 1073.5 hPa | 0 mm | - | - | - |
| 1778398250 | 30.56° C | 16% | 1073.5 hPa | 0 mm | - | - | - |
* Rain latest hour (hover to see other rain measurements)
** Current wind speed in m/s (hover to see current wind gust speed)